Dewpoint
50 50 49 48 49 49 49 49 50 50 49 49 49 49 49 49 48 48 48 48 47 46 46 45 45 45 44 46 44 43 43 43 42 42 41 42 42 42 42 42 42 42 43 43 43 43 44 43 43 44 44 43 44 45 46 46 46 47 48 49 50 51 53 52 51 51 53 56 57 57 57 57 57 57 57 57 57 56 54 54 54 54 55 56 56
51 50 49 49 48 48 49 49 49 50 49 49 49 49 49 48 48 48 48 48 47 46 46 45 45 44 43 43 43 43 43 42 42 41 42 41 41 42 43 42 42 42 42 42 43 43 43 42 43 43 43 43 44 45 45 45 44 44 45 46 47 49 51 52 51 51 50 52 54 56 57 57 57 57 57 57 57 55 55 56 54 54 54 54 55
51 51 50 49 48 48 48 49 49 49 49 49 48 49 49 48 48 47 47 47 46 46 46 45 45 44 43 43 42 42 42 41 41 41 41 40 40 40 42 41 42 42 42 42 42 42 42 43 42 42 44 43 43 43 44 44 44 43 44 45 46 48 50 51 52 51 51 51 53 54 55 56 57 58 58 58 57 56 56 56 56 54 53 53 53
52 51 51 50 49 48 48 49 49 49 49 49 48 48 48 48 49 47 47 47 46 46 46 45 44 43 43 43 42 41 41 41 40 41 41 40 40 41 41 41 41 42 42 42 42 42 42 42 42 43 43 43 42 42 43 43 43 43 43 44 46 47 47 49 51 50 48 48 49 51 54 55 56 58 58 57 57 56 55 55 53 54 54 53 53
52 51 51 50 50 49 49 49 49 49 48 48 48 48 48 48 48 47 46 46 46 46 45 43 43 43 43 42 41 40 40 40 40 40 40 41 41 41 41 41 41 42 43 43 45 44 44 43 43 43 42 41 41 42 42 42 41 42 42 43 44 44 45 47 46 46 46 46 47 49 51 52 55 56 57 57 56 53 51 53 54 54 53 53 53
53 52 51 51 51 50 49 49 49 48 48 48 48 48 48 47 47 47 46 46 45 45 45 44 44 42 41 41 41 40 40 40 40 40 40 41 41 41 41 41 42 42 42 43 43 43 43 42 42 42 41 41 41 42 42 41 41 42 41 41 41 42 43 43 44 44 45 45 46 46 48 49 51 53 55 56 56 55 53 51 50 50 52 52 52
53 52 52 51 51 51 50 49 49 48 48 48 47 47 47 47 47 46 46 45 45 43 43 43 43 41 41 41 40 40 40 40 40 39 40 40 40 40 40 40 41 41 41 42 42 42 42 42 43 43 42 42 42 41 41 42 43 42 43 43 43 43 42 42 42 43 43 43 44 45 46 48 50 50 52 55 56 56 55 53 52 52 50 51 51
54 53 52 52 51 51 51 50 49 48 48 47 47 47 47 47 47 46 46 44 44 43 42 41 42 40 41 40 40 40 39 39 39 39 39 39 40 40 39 40 41 40 41 41 41 41 41 41 40 40 41 41 42 42 42 42 42 42 43 43 42 41 41 41 42 42 42 42 43 43 44 45 47 49 51 53 53 53 53 54 54 53 52 51 51
53 53 52 51 51 51 50 48 48 48 48 47 47 47 46 46 46 46 45 44 44 42 41 40 40 39 39 40 40 41 39 39 39 39 38 38 38 38 39 39 39 39 39 39 39 39 39 39 39 39 42 43 43 43 43 43 43 41 41 40 40 39 39 40 40 40 40 41 42 43 43 44 44 46 47 48 50 52 54 52 52 53 51 50 50
52 52 52 51 48 47 47 46 47 47 48 47 47 46 46 46 45 45 44 43 42 41 40 39 39 39 39 38 38 39 38 39 43 42 41 40 39 39 39 39 39 38 38 38 38 38 38 38 40 42 42 42 41 40 40 40 41 41 40 39 38 38 39 39 39 39 39 39 40 40 41 42 43 44 45 46 49 51 51 51 51 51 48 48 47
50 51 50 49 49 49 48 48 47 47 46 46 45 46 46 45 45 43 42 41 41 41 39 39 38 38 38 37 36 37 38 39 39 38 38 39 38 38 38 38 38 38 38 37 37 37 37 37 38 39 41 41 41 39 39 38 38 38 39 40 41 39 38 38 38 39 39 38 38 39 40 41 42 44 45 46 48 49 49 49 50 48 48 47 48
49 50 49 49 49 49 49 48 48 47 47 46 47 46 46 45 44 42 41 39 39 39 38 38 38 37 37 36 36 37 37 40 38 38 38 37 38 39 37 37 38 37 37 37 37 37 37 37 37 38 38 39 39 38 39 39 38 38 38 38 38 38 39 39 38 38 38 38 38 38 38 38 40 43 44 45 46 47 49 50 49 49 48 48 49
49 49 49 49 49 49 48 48 48 48 47 47 46 46 45 44 42 41 40 40 39 38 38 37 37 37 36 35 35 37 37 39 37 38 37 37 37 37 36 36 36 36 36 36 36 36 36 37 37 37 38 40 39 38 37 38 39 38 38 38 38 38 36 36 37 39 38 37 37 37 37 38 38 39 42 44 45 46 47 48 49 48 49 49 49
48 49 49 49 49 48 48 47 47 47 47 47 46 45 44 43 42 41 40 39 37 37 37 36 36 36 35 35 35 35 35 38 37 37 37 36 36 36 35 35 35 35 35 35 35 35 35 35 35 35 36 37 37 37 36 36 36 36 36 36 37 37 38 37 37 37 38 39 38 37 38 38 38 39 43 46 47 47 47 47 48 48 48 48 48
47 48 48 49 49 48 48 47 46 46 46 45 45 45 44 41 40 40 39 37 37 36 36 35 35 36 36 34 33 33 35 38 37 37 36 36 35 35 35 35 35 34 34 34 34 34 34 35 34 34 34 34 35 36 36 36 36 36 35 35 35 36 36 36 37 39 39 39 38 38 38 39 39 41 43 44 46 47 49 48 48 49 49 43 41
47 47 48 48 48 48 48 46 45 45 45 45 45 43 41 40 39 38 37 36 36 36 34 35 35 34 34 33 33 33 34 36 36 36 36 35 35 35 34 34 34 34 33 34 34 34 34 34 34 34 34 34 35 35 36 36 35 34 34 34 34 34 35 37 37 38 38 38 38 39 39 40 40 41 43 43 41 40 40 41 42 45 46 46 46
46 47 47 48 48 48 47 46 45 45 45 44 42 40 38 37 38 37 36 35 35 35 35 34 35 34 33 33 32 32 32 35 35 35 35 35 35 34 34 33 33 33 33 33 33 33 33 33 33 33 33 33 35 34 34 35 34 33 33 33 33 33 34 35 36 37 37 37 37 37 37 37 37 38 38 38 38 38 39 41 40 42 44 45 46
46 47 47 47 48 47 46 45 44 45 44 42 40 39 39 37 37 37 35 35 35 35 35 35 34 34 33 32 33 31 31 34 36 36 35 35 35 33 33 33 33 33 33 33 33 33 33 36 37 34 34 34 34 34 34 35 34 33 33 33 33 33 33 35 35 36 37 37 37 36 36 36 37 37 37 37 37 38 38 38 39 42 44 45 45
46 47 47 47 47 47 46 45 44 43 42 40 39 38 37 36 37 36 35 35 35 35 37 34 34 33 33 33 38 36 33 34 36 35 34 34 35 33 33 33 32 32 32 32 32 33 32 34 35 35 35 35 34 34 34 34 33 32 32 32 32 32 33 35 35 35 36 36 36 37 38 38 38 38 38 38 38 39 39 38 40 43 44 45 45
46 47 47 46 45 45 45 44 43 41 40 39 38 38 37 36 35 34 35 34 34 34 36 34 33 33 33 33 34 33 32 32 34 34 34 34 34 34 33 32 32 32 32 32 32 32 32 32 33 34 34 34 33 33 33 34 33 32 32 31 31 31 33 34 35 35 35 36 36 36 36 37 39 40 40 40 41 42 40 41 44 46 47 46 46
46 46 45 45 44 43 43 42 41 39 38 38 37 37 35 35 34 34 33 32 33 33 34 33 32 32 31 31 31 30 31 31 32 33 33 34 34 34 32 32 32 32 32 32 31 31 31 32 32 33 33 33 33 33 33 33 33 32 31 31 32 33 35 34 35 35 35 36 37 37 36 36 37 38 39 40 41 43 44 44 46 46 47 47 47
45 45 44 44 43 42 42 42 41 39 37 37 35 34 34 34 34 33 32 32 31 31 31 32 31 29 28 28 30 29 31 34 31 33 33 33 33 34 33 33 33 32 32 31 31 31 31 31 31 32 33 33 33 33 33 33 33 33 32 33 33 33 34 35 34 34 34 34 34 34 35 36 37 38 39 39 40 41 41 41 42 44 46 48 48
44 44 43 42 42 42 41 40 38 37 37 37 36 34 33 33 32 32 31 30 31 30 29 28 28 27 26 27 26 27 28 30 33 31 32 33 33 34 34 33 33 33 32 31 31 31 31 32 32 33 33 33 33 33 33 33 33 33 33 33 33 33 33 32 33 33 33 34 34 34 34 34 36 37 38 39 39 39 40 40 41 43 46 48 49
43 43 43 42 43 42 41 39 37 38 37 36 34 33 32 32 32 32 31 31 30 28 27 28 27 27 26 26 28 28 28 28 30 32 32 32 33 33 33 33 34 33 33 32 32 32 32 32 33 33 33 33 33 33 33 33 33 33 33 33 33 33 33 33 33 33 33 33 33 33 33 34 35 36 37 38 39 39 40 41 42 43 46 48 49
43 42 42 42 42 42 41 40 39 38 34 33 33 33 31 32 31 29 30 29 29 28 27 28 28 27 27 27 27 27 27 28 28 30 32 33 33 33 33 33 33 33 32 32 33 33 33 33 33 33 33 33 33 33 33 33 33 33 33 33 34 33 33 33 33 33 33 33 33 33 33 34 35 36 38 39 39 40 40 41 42 44 45 47 49
42 42 42 41 41 39 38 35 33 35 34 34 33 32 33 32 31 31 30 29 28 28 27 28 28 27 26 26 27 27 27 28 28 29 32 33 33 33 33 33 34 34 34 33 33 33 33 33 33 33 33 33 34 33 33 33 33 33 33 34 33 33 33 33 33 33 33 33 34 34 35 35 36 38 39 40 40 39 39 40 41 42 44 45 45
41 41 41 41 40 35 32 33 33 32 30 31 32 33 33 32 32 32 31 29 28 28 28 28 28 27 26 27 27 27 27 28 28 28 29 30 31 32 32 33 33 34 34 34 34 33 33 33 33 33 33 33 33 33 33 33 33 33 33 33 33 33 33 33 33 33 33 33 33 34 35 37 38 38 39 39 39 39 40 39 40 41 43 44 44
41 40 41 41 38 33 31 30 31 29 28 28 29 30 31 31 31 31 30 29 28 27 27 28 28 28 27 27 26 27 27 27 27 28 28 30 31 32 32 33 33 33 33 33 32 32 32 32 33 33 33 33 33 33 33 33 33 33 33 34 34 34 34 34 34 34 34 34 34 35 36 37 38 38 39 39 39 39 40 40 40 42 43 43 42
40 40 40 36 30 30 31 31 30 28 27 28 29 30 30 29 29 28 28 29 29 28 27 27 28 28 27 28 27 27 27 28 28 31 31 32 32 32 32 33 33 33 32 33 32 32 32 32 32 32 32 32 32 32 32 33 33 33 34 34 34 34 34 34 34 34 34 34 34 35 35 36 37 38 38 38 38 39 39 40 42 43 42 43 42
38 36 31 29 29 30 30 30 28 27 27 28 28 28 29 32 30 27 24 32 32 33 31 28 28 28 27 29 29 28 28 29 31 32 32 32 33 33 33 33 33 32 32 32 32 31 31 31 31 31 31 31 31 31 32 32 32 32 33 33 34 34 34 35 34 34 34 34 34 34 34 35 36 37 38 37 38 39 39 39 41 43 41 41 41
31 29 28 29 30 30 30 29 27 27 28 28 29 28 27 29 32 32 32 32 33 33 33 32 32 31 31 28 30 32 32 32 32 32 32 33 33 33 33 33 32 32 32 31 31 30 31 30 30 31 31 31 31 31 31 32 32 33 33 33 34 34 34 34 35 34 34 33 33 34 34 35 35 36 36 37 37 38 39 40 41 42 42 41 40
28 28 28 29 30 29 27 28 28 28 28 28 27 27 27 25 25 30 31 33 34 33 33 32 32 32 32 32 31 31 31 32 32 32 33 33 33 33 33 32 32 32 32 32 30 30 30 30 30 30 30 30 31 31 31 32 32 33 33 33 33 33 33 33 34 35 34 34 34 34 34 34 35 35 36 36 36 37 39 38 40 40 40 41 40
29 29 29 30 29 28 27 28 28 28 28 27 27 26 25 24 22 21 26 31 32 33 33 33 32 32 32 33 33 33 33 33 33 33 33 33 33 33 32 32 32 32 31 30 29 29 29 30 30 30 31 30 31 31 31 32 32 32 33 33 33 33 34 34 34 35 34 34 34 34 34 34 35 35 35 35 36 37 37 38 39 39 39 38 36
29 29 29 28 27 28 28 28 28 27 27 26 26 25 25 25 24 23 21 24 26 29 30 32 33 33 33 33 33 33 33 32 32 33 33 33 33 32 32 32 32 31 31 30 30 29 30 30 30 30 31 31 31 31 31 31 32 32 33 34 35 35 35 36 35 34 34 34 34 34 34 34 35 35 35 36 36 36 37 37 37 37 37 36 36
30 30 30 28 27 28 28 29 28 27 27 26 26 26 26 25 25 24 22 21 21 24 25 27 30 31 29 30 31 32 32 32 32 33 33 33 32 32 32 30 29 29 29 29 30 30 30 29 30 30 30 30 31 31 31 31 32 32 32 33 34 35 35 35 35 35 34 35 35 35 35 35 35 35 36 36 36 36 36 36 36 37 36 35 35
30 29 29 28 28 28 29 29 28 27 27 26 26 26 25 25 24 24 24 24 24 23 25 24 24 28 30 31 32 32 32 32 32 32 32 32 32 32 29 29 29 29 29 29 29 30 30 30 30 30 31 31 31 31 31 31 32 32 33 33 33 34 34 34 35 35 35 35 35 35 35 35 36 36 36 36 35 35 35 35 35 35 35 35 34
29 29 29 29 29 30 30 29 28 27 28 27 26 25 25 25 24 24 24 24 23 22 23 25 26 27 29 27 29 31 32 32 32 32 32 32 32 31 30 29 29 29 29 29 29 29 29 29 30 30 30 30 31 31 31 32 32 32 32 33 33 33 34 34 35 35 35 35 35 35 35 36 35 35 35 35 34 35 35 34 34 34 33 33 33
29 29 29 30 31 32 30 29 29 28 28 28 27 26 25 24 24 24 22 20 23 22 22 24 27 22 22 25 30 28 30 31 31 31 31 31 30 30 30 29 29 29 29 29 29 29 29 29 30 30 30 31 30 31 31 31 32 32 32 32 32 33 33 33 34 35 35 35 35 35 35 35 35 35 34 34 34 34 34 34 34 33 33 33 33
30 30 31 31 31 31 30 29 28 28 29 28 27 24 23 23 23 23 21 21 21 20 22 23 22 23 24 24 25 29 30 29 29 30 30 30 30 30 30 29 29 29 29 29 29 29 29 29 30 30 30 30 30 30 31 31 31 32 32 32 32 32 32 33 33 34 35 35 35 35 35 34 34 34 34 34 34 34 34 33 33 33 33 32 32
30 30 30 31 31 31 30 30 29 29 28 28 26 25 24 24 23 23 21 21 20 21 20 21 21 22 25 24 25 26 27 28 29 30 31 30 30 30 30 29 29 29 29 29 29 29 29 29 30 30 30 30 30 30 30 31 31 31 32 32 32 32 32 32 33 33 34 34 34 34 34 34 34 34 33 34 33 33 33 33 33 33 32 32 31
29 30 31 31 32 32 31 30 29 28 27 27 27 27 26 25 25 24 22 21 21 21 22 23 24 26 26 26 30 30 26 27 29 30 31 31 30 30 30 30 30 30 30 30 29 30 29 29 29 30 30 30 30 30 30 31 31 31 31 32 32 32 32 32 32 33 33 33 33 33 33 33 33 33 33 33 33 33 33 33 32 32 32 31 30
31 32 32 31 31 31 30 29 29 29 29 28 30 27 26 26 26 26 25 24 24 24 24 26 26 27 28 29 30 31 28 28 29 30 31 31 30 30 30 30 30 30 30 30 30 30 30 30 30 30 30 30 30 30 30 30 30 31 31 31 32 32 31 31 32 32 32 32 32 33 32 32 32 32 32 33 32 32 32 32 32 31 31 30 29
32 32 31 31 31 30 30 29 29 30 30 30 29 29 29 29 29 29 28 27 26 26 26 27 28 27 28 28 28 28 27 28 29 30 31 31 31 30 30 30 31 31 31 31 31 31 31 30 30 30 30 30 31 31 31 30 31 31 31 31 31 31 32 31 31 31 31 31 31 32 32 32 32 32 32 32 32 31 31 31 31 30 30 30 29
32 32 31 31 31 31 30 30 30 30 30 29 29 30 29 29 29 29 29 29 28 27 27 27 28 27 28 29 29 28 28 28 28 30 31 31 31 31 31 31 31 31 31 31 31 31 31 30 30 30 31 31 31 31 31 31 31 31 31 31 31 31 31 31 31 31 31 31 31 31 32 32 32 32 32 32 31 31 31 31 31 31 30 30 29
32 31 31 31 31 31 30 30 29 29 29 29 29 29 29 29 29 29 29 28 29 28 28 28 28 28 28 29 29 29 29 28 29 30 31 31 31 31 31 31 31 31 31 31 31 31 31 31 31 30 30 31 31 31 31 31 32 32 32 31 31 31 31 31 31 31 32 32 32 32 32 32 32 32 32 32 31 31 31 31 30 30 30 29 29
32 31 31 31 31 31 30 29 29 29 30 30 30 29 28 28 28 28 28 28 29 28 28 28 28 29 29 29 29 29 30 29 29 30 30 31 31 31 31 31 31 31 31 31 31 31 31 31 31 31 31 31 31 31 31 32 32 32 32 32 32 32 32 32 32 32 32 32 32 32 32 32 32 32 32 31 31 31 30 30 30 30 30 30 30
31 31 31 31 31 31 30 30 30 29 30 30 30 30 29 28 28 29 29 29 29 29 29 29 30 30 30 30 30 30 30 30 30 30 29 30 31 31 31 32 32 32 31 31 31 31 31 31 31 31 31 31 31 31 31 31 32 32 32 32 32 32 32 32 32 32 32 32 32 31 32 32 32 31 31 31 31 30 30 30 30 30 30 30 30
31 30 30 30 30 30 30 30 30 30 30 30 30 30 30 29 29 29 29 29 29 29 29 29 29 29 30 30 30 30 30 30 30 31 31 30 30 31 31 32 32 32 31 31 31 31 31 31 31 31 31 31 31 31 31 31 31 32 32 32 32 32 32 32 32 32 32 32 32 32 31 31 31 31 31 30 30 30 30 30 30 30 30 30 30
30 29 29 29 29 29 29 30 30 29 30 30 30 29 29 29 29 29 29 28 28 29 29 29 29 29 29 29 29 30 30 30 30 30 30 30 30 30 31 32 32 32 31 31 31 31 31 31 31 31 31 31 31 31 31 31 31 31 32 32 32 32 31 31 31 32 32 32 32 31 31 31 31 31 31 30 30 30 30 30 30 30 30 30 30
29 29 28 29 29 29 30 30 30 30 30 30 29 29 29 29 29 29 28 28 28 28 28 28 28 28 28 28 29 29 29 29 29 29 30 30 30 30 31 32 32 32 31 31 31 31 31 31 31 31 31 31 31 31 31 31 31 31 32 32 31 32 32 32 31 31 31 31 31 31 31 31 31 31 30 30 30 30 30 30 30 30 30 30 30
28 27 28 28 29 29 29 29 29 29 29 29 29 29 29 29 28 28 28 28 27 27 27 27 27 27 27 27 28 28 28 28 28 28 29 29 30 30 30 30 32 32 31 31 31 31 31 31 31 31 31 31 31 31 31 31 31 31 31 31 31 31 31 32 32 31 31 31 31 31 31 31 31 30 30 30 30 30 30 30 30 30 30 30 30